DW1973 Weather Reports


Display with metric or nautical units.
time (UTC)temp
F
wind
direction
speed
MPH
gust
MPH
rain 1hr
in
rain 24hr
in
rain mn
in
humidity
%
barometer
mb
20260506062432 48 9 1.0 2.0 0.00 0.07 0.00 55 1010.6
20260506061919 48 5 0.0 3.0 0.00 0.07 0.00 55 1010.8
20260506061432 48 5 2.0 3.0 0.00 0.07 0.00 55 1010.6
20260506060941 48 9 2.0 3.0 0.00 0.07 0.00 55 1010.6
20260506060448 48 11 0.0 0.0 0.00 0.07 0.00 55 1010.8
20260506051416 50 9 1.0 3.0 0.00 0.07 0.07 48 1010.4
20260506050926 51 9 1.0 3.0 0.00 0.07 0.07 48 1010.4
20260506050433 51 9 1.0 5.0 0.00 0.07 0.07 49 1010.3
20260506044945 51 111 1.0 3.0 0.00 0.07 0.07 48 1010.2
20260506044433 51 5 2.0 3.0 0.00 0.07 0.07 48 1010.1
20260506043943 51 5 1.0 3.0 0.00 0.07 0.07 49 1010.2
20260506043431 51 30 2.0 3.0 0.00 0.07 0.07 49 1010.2
20260506042942 51 5 2.0 3.0 0.00 0.07 0.07 50 1010.3
20260506042452 51 130 2.0 4.0 0.00 0.07 0.07 51 1010.2
20260506041915 51 134 2.0 4.0 0.00 0.07 0.07 52 1010.2
20260506041429 51 130 1.0 4.0 0.00 0.07 0.07 52 1010.3
20260506040917 51 143 2.0 4.0 0.00 0.07 0.07 53 1010.4
20260506040449 51 135 1.0 2.0 0.00 0.07 0.07 55 1010.4
20260506035919 51 93 0.0 2.0 0.00 0.07 0.07 55 1010.4
20260506035427 51 20 0.0 0.0 0.00 0.07 0.07 56 1010.3
20260506034915 51 20 0.0 0.0 0.00 0.07 0.07 57 1010.1
20260506034429 51 20 0.0 0.0 0.00 0.07 0.07 55 1010.1
20260506033919 52 18 0.0 0.0 0.00 0.07 0.07 55 1010.1
20260506033430 52 17 0.0 0.0 0.00 0.07 0.07 54 1010.1
20260506032959 52 18 0.0 0.0 0.00 0.07 0.07 53 1010.1
20260506032446 52 18 0.0 0.0 0.00 0.07 0.07 53 1010.1
20260506031931 52 18 0.0 0.0 0.00 0.07 0.07 53 1009.9
20260506031422 52 18 0.0 0.0 0.00 0.07 0.07 52 1009.8
20260506030925 52 18 0.0 0.0 0.00 0.07 0.07 51 1009.8
20260506030432 52 19 0.0 0.0 0.00 0.07 0.07 52 1009.8
20260506025920 52 17 0.0 0.0 0.00 0.07 0.07 52 1009.7
20260506025430 52 18 0.0 0.0 0.00 0.07 0.07 52 1009.7
20260506024917 52 18 0.0 0.0 0.00 0.07 0.07 52 1009.7
20260506024430 52 18 0.0 0.0 0.00 0.07 0.07 51 1009.7
20260506023919 52 17 0.0 0.0 0.00 0.07 0.07 51 1009.7
20260506023427 52 18 0.0 0.0 0.00 0.07 0.07 51 1009.9
20260506022917 52 18 0.0 0.0 0.00 0.07 0.07 51 1009.9
20260506022427 52 18 0.0 0.0 0.00 0.07 0.07 51 1009.8
20260506021916 53 18 0.0 0.0 0.00 0.07 0.07 50 1009.7
20260506021426 53 18 0.0 0.0 0.00 0.07 0.07 50 1009.5
20260506020916 53 18 0.0 0.0 0.00 0.07 0.07 50 1009.5
20260506020449 53 18 0.0 0.0 0.00 0.07 0.07 49 1009.4
20260506015916 53 18 0.0 0.0 0.00 0.07 0.07 49 1009.4
20260506015425 53 17 0.0 0.0 0.00 0.07 0.07 49 1009.3
20260506014915 53 17 0.0 0.0 0.00 0.07 0.07 48 1009.2
20260506014425 53 17 0.0 0.0 0.00 0.07 0.07 48 1009.1
20260506013934 53 17 0.0 0.0 0.00 0.07 0.07 48 1009.1
20260506013421 53 17 0.0 0.0 0.00 0.07 0.07 47 1009.0
20260506012932 53 17 0.0 0.0 0.00 0.07 0.07 47 1009.0
20260506012441 53 17 0.0 0.0 0.00 0.07 0.07 47 1008.8
20260506011928 54 17 0.0 0.0 0.00 0.07 0.07 46 1008.7
20260506011419 54 17 0.0 0.0 0.00 0.07 0.07 46 1008.7
20260506010927 54 17 0.0 0.0 0.00 0.07 0.07 45 1008.8
20260506010417 54 17 0.0 0.0 0.00 0.07 0.07 46 1008.7
20260506005922 54 17 0.0 1.0 0.00 0.07 0.07 45 1008.6
20260506005432 54 17 0.0 2.0 0.00 0.07 0.07 45 1008.6
20260506004939 54 17 0.0 2.0 0.00 0.07 0.07 45 1008.4
20260506004429 54 17 1.0 2.0 0.00 0.07 0.07 45 1008.3
20260506003916 54 16 1.0 2.0 0.00 0.07 0.07 45 1008.4
20260506003420 54 16 0.0 3.0 0.00 0.07 0.07 45 1008.4
20260506002933 54 21 1.0 3.0 0.00 0.07 0.07 44 1008.2
20260506002422 54 25 0.0 2.0 0.00 0.07 0.07 44 1008.2
20260506001932 54 20 1.0 4.0 0.00 0.07 0.07 44 1008.2
20260506001419 54 20 1.0 4.0 0.00 0.07 0.07 44 1008.3
20260506000928 54 22 1.0 4.0 0.00 0.07 0.07 44 1008.4
20260506000417 55 19 1.0 4.0 0.00 0.07 0.07 43 1008.3
20260505235930 55 17 2.0 4.0 0.00 0.07 0.07 42 1008.3
20260505235415 55 17 2.0 4.0 0.00 0.07 0.07 42 1008.1
20260505234919 55 18 1.0 4.0 0.00 0.07 0.07 42 1008.1
20260505234431 55 17 2.0 5.0 0.00 0.07 0.07 41 1008.2
20260505233919 55 19 2.0 4.0 0.00 0.07 0.07 40 1008.2
20260505233428 55 18 2.0 4.0 0.00 0.07 0.07 41 1008.4
20260505232920 55 17 2.0 4.0 0.00 0.07 0.07 41 1008.3
20260505232427 55 17 0.0 4.0 0.00 0.07 0.07 44 1008.5
20260505231916 55 17 2.0 6.0 0.00 0.07 0.07 41 1008.3
20260505231427 55 19 3.0 6.0 0.00 0.07 0.07 40 1008.3
20260505230917 55 17 3.0 6.0 0.00 0.07 0.07 41 1008.4
20260505230427 55 17 1.0 5.0 0.00 0.07 0.07 42 1008.3
20260505225939 55 15 2.0 5.0 0.00 0.07 0.07 41 1008.3
20260505225448 56 15 2.0 5.0 0.00 0.07 0.07 40 1008.3
20260505224916 56 15 1.0 6.0 0.00 0.07 0.07 43 1008.4
20260505224424 56 14 2.0 6.0 0.00 0.07 0.07 41 1008.5
20260505223934 56 16 1.0 4.0 0.00 0.07 0.07 40 1008.7
20260505223424 56 16 1.0 4.0 0.00 0.07 0.07 43 1008.8
20260505222930 56 15 1.0 4.0 0.00 0.07 0.07 40 1008.7
20260505222436 56 15 2.0 5.0 0.00 0.07 0.07 40 1008.6
20260505221944 56 22 3.0 5.0 0.00 0.07 0.07 40 1008.6
20260505221435 56 18 2.0 5.0 0.00 0.07 0.07 41 1008.5
20260505220943 55 16 2.0 5.0 0.00 0.07 0.07 39 1008.4
20260505220432 55 15 2.0 4.0 0.00 0.07 0.07 41 1008.5
20260505215953 55 15 2.0 6.0 0.00 0.07 0.07 39 1008.6
20260505215442 55 16 3.0 6.0 0.00 0.07 0.07 38 1008.7
20260505214948 55 15 3.0 8.0 0.00 0.07 0.07 37 1008.7
20260505214417 55 16 3.0 8.0 0.00 0.07 0.07 38 1008.7
20260505213925 55 15 3.0 6.0 0.00 0.07 0.07 37 1008.7
20260505213431 55 17 3.0 5.0 0.00 0.07 0.07 37 1008.7
20260505212923 55 16 3.0 6.0 0.00 0.07 0.07 37 1008.8
20260505212431 55 17 3.0 6.0 0.00 0.07 0.07 36 1008.8
20260505211919 56 18 3.0 5.0 0.00 0.07 0.07 36 1008.7
20260505211452 56 17 3.0 10.0 0.00 0.07 0.07 37 1008.8
20260505210938 55 17 3.0 10.0 0.00 0.07 0.07 38 1008.7
20260505210448 55 15 2.0 5.0 0.00 0.07 0.07 39 1008.7
20260505205919 55 17 3.0 6.0 0.00 0.07 0.07 37 1008.8
20260505205428 55 15 4.0 6.0 0.00 0.07 0.07 37 1008.9
20260505204917 55 16 2.0 6.0 0.00 0.07 0.07 37 1008.9
20260505204426 55 17 2.0 8.0 0.00 0.07 0.07 39 1008.9
20260505203934 55 17 4.0 8.0 0.00 0.07 0.07 38 1009.1
20260505203421 55 17 1.0 5.0 0.00 0.07 0.07 41 1009.0
20260505202930 55 18 2.0 5.0 0.00 0.07 0.07 38 1009.2
20260505202437 55 19 2.0 5.0 0.00 0.07 0.07 39 1009.2
20260505201946 55 16 1.0 2.0 0.00 0.07 0.07 41 1009.2
20260505201437 55 20 1.0 3.0 0.00 0.07 0.07 39 1009.2
20260505200946 55 22 2.0 5.0 0.00 0.07 0.07 39 1009.1
20260505200432 55 28 2.0 5.0 0.00 0.07 0.07 39 1009.2
20260505195921 55 21 1.0 5.0 0.00 0.07 0.07 39 1009.4
20260505195431 55 26 3.0 5.0 0.00 0.07 0.07 38 1009.3
20260505194916 55 38 2.0 6.0 0.00 0.07 0.07 38 1009.1
20260505194429 55 23 4.0 6.0 0.00 0.07 0.07 38 1009.2
20260505193918 55 43 2.0 4.0 0.00 0.07 0.07 39 1009.1
20260505193426 55 19 2.0 5.0 0.00 0.07 0.07 40 1009.2
20260505192946 55 18 2.0 4.0 0.00 0.07 0.07 43 1009.3
20260505192431 55 17 3.0 5.0 0.00 0.07 0.07 40 1009.2
20260505191920 55 19 3.0 6.0 0.00 0.07 0.07 43 1009.5
20260505191413 55 17 3.0 6.0 0.00 0.07 0.07 42 1009.4
20260505190924 55 20 3.0 6.0 0.00 0.07 0.07 41 1009.5
20260505190430 55 19 2.0 6.0 0.00 0.07 0.07 43 1009.4
20260505185922 55 18 3.0 6.0 0.00 0.07 0.07 41 1009.4
20260505185430 55 18 3.0 6.0 0.00 0.07 0.07 43 1009.5
20260505184918 55 21 2.0 6.0 0.00 0.07 0.07 44 1009.4
20260505184426 55 37 4.0 6.0 0.00 0.07 0.07 42 1009.5
20260505183913 56 69 3.0 8.0 0.00 0.07 0.07 42 1009.5
20260505183420 56 23 4.0 8.0 0.00 0.07 0.07 43 1009.4
20260505182949 56 23 2.0 6.0 0.00 0.07 0.07 42 1009.6
20260505182420 56 26 2.0 6.0 0.00 0.07 0.07 43 1009.3
20260505181927 56 21 1.0 5.0 0.00 0.07 0.07 41 1009.3
20260505181421 56 22 2.0 5.0 0.00 0.07 0.07 42 1009.4
20260505180929 56 23 3.0 5.0 0.00 0.07 0.07 41 1009.3
20260505180417 56 21 3.0 5.0 0.00 0.07 0.07 41 1009.2
20260505175928 56 21 2.0 5.0 0.00 0.07 0.07 42 1009.3
20260505175436 56 22 3.0 6.0 0.00 0.07 0.07 42 1009.1
20260505174925 56 26 2.0 6.0 0.00 0.07 0.07 44 1009.1
20260505174430 56 17 1.0 6.0 0.00 0.07 0.07 40 1008.9
20260505173939 56 26 3.0 6.0 0.00 0.07 0.07 39 1009.1
20260505173446 55 17 2.0 5.0 0.00 0.07 0.07 41 1009.1
20260505172915 55 22 3.0 8.0 0.00 0.07 0.07 42 1009.1
20260505172422 55 30 3.0 8.0 0.00 0.07 0.07 41 1009.1
20260505171929 55 28 3.0 6.0 0.00 0.07 0.07 44 1009.1
20260505171421 55 24 4.0 6.0 0.00 0.07 0.07 42 1009.0
20260505170931 55 17 2.0 5.0 0.00 0.07 0.07 45 1008.9
20260505170420 55 24 3.0 5.0 0.00 0.07 0.07 46 1009.0
20260505165931 55 19 3.0 8.0 0.00 0.07 0.07 48 1008.8
20260505165421 55 34 3.0 9.0 0.00 0.07 0.07 48 1008.9
20260505164932 55 42 3.0 9.0 0.00 0.07 0.07 48 1008.8
20260505164457 55 54 3.0 7.0 0.00 0.07 0.07 50 1008.7
20260505163947 55 46 2.0 6.0 0.00 0.07 0.07 55 1008.7
20260505163416 54 38 1.0 6.0 0.00 0.07 0.07 57 1008.9
20260505162948 54 25 3.0 7.0 0.00 0.07 0.07 56 1009.2
20260505162417 54 239 3.0 7.0 0.00 0.07 0.07 56 1009.1
20260505161924 54 247 3.0 6.0 0.00 0.07 0.07 53 1008.9
20260505161416 54 278 3.0 6.0 0.00 0.07 0.07 57 1009.0
20260505160925 54 271 1.0 6.0 0.00 0.07 0.07 52 1008.8
20260505160432 53 42 3.0 6.0 0.00 0.07 0.07 54 1008.9
20260505152941 51 38 3.0 6.0 0.00 0.07 0.07 62 1008.7
20260505152428 51 24 1.0 4.0 0.00 0.07 0.07 64 1008.5
20260505151915 50 24 2.0 4.0 0.00 0.07 0.07 65 1008.5
20260505151456 50 26 2.0 4.0 0.00 0.07 0.07 65 1008.8
20260505150944 50 19 2.0 5.0 0.00 0.07 0.07 69 1008.7
20260505150431 50 29 2.0 5.0 0.00 0.07 0.07 72 1008.5
20260505140422 45 28 0.0 0.0 0.03 0.07 0.07 89 1009.2
20260505124917 45 360 1.0 3.0 0.03 0.03 0.03 82 1008.6
20260505124430 45 360 1.0 3.0 0.02 0.02 0.02 81 1008.9
20260505123916 45 360 1.0 2.0 0.01 0.01 0.01 80 1008.9
20260505123425 46 360 1.0 2.0 0.01 0.01 0.01 78 1008.9
20260505122936 46 360 0.0 2.0 0.01 0.01 0.01 77 1008.5
20260505122425 46 360 0.0 2.0 0.00 0.00 0.00 75 1008.3
20260505121930 47 42 0.0 3.0 0.00 0.00 0.00 74 1008.4
20260505121458 47 360 1.0 3.0 0.00 0.00 0.00 72 1008.7
20260505120946 48 360 2.0 4.0 0.00 0.00 0.00 70 1009.1
20260505120414 48 17 2.0 4.0 0.00 0.00 0.00 67 1009.1
20260505115924 49 360 2.0 5.0 0.00 0.00 0.00 65 1009.0
20260505115432 49 28 2.0 5.0 0.00 0.00 0.00 62 1008.7
20260505114918 50 30 2.0 4.0 0.00 0.00 0.00 61 1008.2
20260505114430 50 26 2.0 4.0 0.00 0.00 0.00 58 1007.8
20260505113917 51 360 2.0 5.0 0.00 0.00 0.00 57 1007.7
20260505113426 51 30 2.0 5.0 0.00 0.00 0.00 56 1007.7
20260505112917 51 26 3.0 4.0 0.00 0.00 0.00 56 1007.6
20260505112452 51 5 2.0 5.0 0.00 0.00 0.00 56 1007.3
20260505111919 51 26 3.0 5.0 0.00 0.00 0.00 56 1006.9
20260505111432 51 28 2.0 5.0 0.00 0.00 0.00 57 1006.7
20260505110933 51 28 2.0 6.0 0.00 0.00 0.00 57 1006.3
20260505110441 52 26 3.0 6.0 0.00 0.00 0.00 57 1006.1
20260505101930 53 9 1.0 3.0 0.00 0.00 0.00 55 1005.6
20260505101422 53 360 0.0 5.0 0.00 0.00 0.00 55 1005.8
20260505100930 53 360 2.0 5.0 0.00 0.00 0.00 54 1005.7
20260505100420 53 9 3.0 5.0 0.00 0.00 0.00 54 1005.5
20260505095929 53 25 2.0 4.0 0.00 0.00 0.00 55 1005.5
20260505095436 53 9 2.0 4.0 0.00 0.00 0.00 55 1005.7
20260505094941 53 28 2.0 4.0 0.00 0.00 0.00 54 1005.8
20260505094432 53 9 2.0 4.0 0.00 0.00 0.00 54 1005.8
20260505093920 54 5 1.0 4.0 0.00 0.00 0.00 55 1005.8
20260505093426 54 9 2.0 6.0 0.00 0.00 0.00 55 1005.6
20260505092918 54 25 3.0 6.0 0.00 0.00 0.00 56 1005.8
20260505092455 54 23 2.0 4.0 0.00 0.00 0.00 56 1005.9
20260505091922 55 20 1.0 4.0 0.00 0.00 0.00 58 1005.6
20260505091414 55 18 2.0 3.0 0.00 0.00 0.00 56 1005.6
20260505090922 56 17 1.0 3.0 0.00 0.00 0.00 54 1005.5
20260505090431 56 17 1.0 3.0 0.00 0.00 0.00 54 1005.4
20260505085936 56 19 1.0 3.0 0.00 0.00 0.00 54 1005.3
20260505085452 56 18 1.0 3.0 0.00 0.00 0.00 53 1005.2
20260505084920 56 18 2.0 3.0 0.00 0.00 0.00 52 1004.9
20260505084429 56 18 1.0 4.0 0.00 0.00 0.00 52 1004.8
20260505083936 56 17 3.0 4.0 0.00 0.00 0.00 52 1004.6
20260505083442 56 19 2.0 4.0 0.00 0.00 0.00 52 1004.5
20260505082925 56 19 2.0 3.0 0.00 0.00 0.00 52 1004.2
20260505082433 57 19 1.0 3.0 0.00 0.00 0.00 51 1004.0
20260505081920 57 19 2.0 3.0 0.00 0.00 0.00 51 1003.7
20260505081431 57 22 1.0 3.0 0.00 0.00 0.00 51 1003.6
20260505080919 57 19 2.0 4.0 0.00 0.00 0.00 51 1003.8
20260505080428 57 26 2.0 4.0 0.00 0.00 0.00 51 1003.6
20260505075916 57 28 1.0 5.0 0.00 0.00 0.00 50 1003.6
20260505075423 57 24 1.0 5.0 0.00 0.00 0.00 50 1003.5
20260505074930 57 284 2.0 4.0 0.00 0.00 0.00 50 1003.3
20260505074421 57 288 2.0 3.0 0.00 0.00 0.00 50 1003.3
20260505073928 57 275 2.0 3.0 0.00 0.00 0.00 50 1003.3
20260505073438 58 272 0.0 4.0 0.00 0.00 0.00 51 1003.4
20260505072945 58 269 2.0 4.0 0.00 0.00 0.00 50 1003.2
20260505072431 58 285 2.0 4.0 0.00 0.00 0.00 50 1003.0
20260505071918 58 281 2.0 3.0 0.00 0.00 0.00 50 1003.0
20260505071431 58 296 1.0 3.0 0.00 0.00 0.00 50 1002.7
20260505070921 58 298 0.0 3.0 0.00 0.00 0.00 51 1002.8
20260505070428 58 296 1.0 3.0 0.00 0.00 0.00 51 1002.6